Hourly Data Report for May 24, 2015

All times are specified in Local Standard Time (LST). Add 1 hour to adjust for Daylight Saving Time where and when it is observed.

CHARLOTTETOWN A
PRINCE EDWARD ISLAND

46°17'21.000" N
63°07'09.000" W
48.50 m
8300301
71706
YYG

Download Data

Hourly Data (May 2015)
Hourly Data Report for May 24, 2015
Temp Definition
°C
Dew Point Temp Definition
°C
Rel Hum Definition
%
Wind Dir Definition
10's deg

Wind Spd Definition
km/h
Visibility Definition
km
Stn Press Definition
kPa
Hmdx Definition


Wind Chill Definition


Weather Definition


TIME
00:00 Legend Double Dagger 6.9 -1.3 56 24 15 24.1 101.18     LegendNANA
01:00 Legend Double Dagger 6.8 -1.4 56 24 18 24.1 101.18     LegendNANA
02:00 Legend Double Dagger 6.5 -0.2 62 24 16 24.1 101.19     Clear
03:00 Legend Double Dagger 5.8 0.8 70 24 16 24.1 101.19     LegendNANA
04:00 Legend Double Dagger 5.4 -0.4 66 22 18 24.1 101.18     LegendNANA
05:00 Legend Double Dagger 6.0 0.1 66 22 18 24.1 101.19     Mainly Clear
06:00 Legend Double Dagger 7.3 1.4 66 22 26 24.1 101.20     LegendNANA
07:00 Legend Double Dagger 8.7 0.7 57 22 27 24.1 101.17     LegendNANA
08:00 Legend Double Dagger 9.8 0.5 52 22 18 24.1 101.10     Mostly Cloudy
09:00 Legend Double Dagger 11.6 1.0 48 21 28 24.1 101.00     LegendNANA
10:00 Legend Double Dagger 11.0 1.8 53 22 34 24.1 100.98     LegendNANA
11:00 Legend Double Dagger 12.0 3.6 56 22 33 24.1 100.91     Mostly Cloudy
12:00 Legend Double Dagger 14.3 4.4 51 21 34 24.1 100.78     LegendNANA
13:00 Legend Double Dagger 16.7 5.4 47 23 26 24.1 100.72     LegendNANA
14:00 Legend Double Dagger 17.9 4.9 42 24 32 24.1 100.73     Mostly Cloudy
15:00 Legend Double Dagger 18.7 4.6 39 23 26 24.1 100.74     LegendNANA
16:00 Legend Double Dagger 19.0 6.3 43 23 22 24.1 100.76     LegendNANA
17:00 Legend Double Dagger 18.6 5.6 42 23 25 24.1 100.74     Mostly Cloudy
18:00 Legend Double Dagger 18.2 6.5 46 22 16 24.1 100.75     LegendNANA
19:00 Legend Double Dagger 16.4 6.6 52 23 16 24.1 100.82     LegendNANA
20:00 Legend Double Dagger 14.9 6.0 55 22 10 24.1 100.85     Mostly Cloudy
21:00 Legend Double Dagger 14.0 5.9 58 27 10 24.1 100.95     LegendNANA
22:00 Legend Double Dagger 12.8 5.8 62 22 12 24.1 100.98     LegendNANA
23:00 Legend Double Dagger 12.4 5.8 64 24 17 24.1 101.02     Mostly Cloudy

Notes on Data Quality.

Legend

  • E = Estimated
  • M = Missing
  • NA = Not Available
  • ‡ = Partner data that is not subject to review by the National Climate Archives
Date modified: